Location: Marysville Observatory
(48.1092°N, 122.1645°W)
Time: 01:56:32
(UTC-07:00)

ISS - Visible Passes

Search period start: 01 November 2014 00:00
Search period end: 10 November 2014 23:00
Orbit: 412 x 417 km, 51.6° (Epoch: 01 November)

Date Brightness Start Highest point End Pass type
(mag) Time Alt. Az. Time Alt. Az. Time Alt. Az.
08 Nov -0.6 06:26:54 10° SSW 06:29:34 22° SE 06:32:14 10° E visible
09 Nov -0.3 05:38:25 10° S 05:40:17 14° SE 05:42:10 10° ESE visible
10 Nov -2.2 06:23:50 10° SW 06:27:02 47° SSE 06:30:15 10° ENE visible
